Regional Weather Roundup
Issued by NWS

Home | Current Version | Previous Version | Text Only | Print | Product List | Glossary On
Versions: 1 2 3 4 5 6 7 8 9 10 11 12 13 14 15 16 17 18 19 20 21 22 23 24 25 26 27 28 29 30 31 32 33 34 35 36 37 38 39 40 41 42 43 44 45 46 47 48 49 50
000
ASUS45 KREV 310610
RWRNV
NEVADA REGIONAL WEATHER ROUNDUP
NATIONAL WEATHER SERVICE RENO NV
1100 PM PDT SUN AUG 30 2015

NOTE: "FAIR" INDICATES FEW OR NO CLOUDS BELOW 12,000 FEET WITH NO
SIGNIFICANT WEATHER AND/OR OBSTRUCTIONS TO VISIBILITY.

NVZ001-003-004-310700-
WESTERN NEVADA

CITY           SKY/WX    TMP DP  RH WIND       PRES   REMARKS
RENO           PTCLDY    66  28  24 N5        30.07S
6HR MIN TEMP:  66; 6HR MAX TEMP:  83;

CARSON CITY    FAIR      59  23  25 CALM      30.09S
MINDEN         FAIR      52  32  46 SE10      30.09S
SLIDE MTN        N/A     48  19  32 W14         N/A
PYRAMID LAKE     N/A     70 N/A N/A S1          N/A
FALLON         CLEAR     65  17  15 NW5       30.02S
6HR MIN TEMP:  65; 6HR MAX TEMP:  88;

LOVELOCK       CLEAR     65  19  17 NW5       30.02R
6HR MIN TEMP:  63; 6HR MAX TEMP:  86;

HAWTHORNE      CLEAR     73  23  15 NW10      30.02R
$$

NVZ002-CAZ072-073-310700-
NORTHERN AND CENTRAL SIERRA

CITY           SKY/WX    TMP DP  RH WIND       PRES   REMARKS
S. LAKE TAHOE  CLEAR     50  35  56 CALM      30.18S
6HR MIN TEMP:  50; 6HR MAX TEMP:  73;

TRUCKEE        CLEAR     41  28  60 SW3       30.17S
SQUAW VLY 8000   N/A     48  10  21 W1          N/A
SUSANVILLE     CLEAR     63  32  31 NW7       30.08S
BLUE CANYON    CLEAR     59  34  39 NE3       30.14S
MAMMOTH LAKES  FAIR      61  30  31 W13       30.20S
BRIDGEPORT     FAIR      53  28  38 CALM      30.19R
$$

NVZ030-031-036-310700-
NORTHERN NEVADA

CITY           SKY/WX    TMP DP  RH WIND       PRES   REMARKS
ELKO           CLEAR     56  27  32 S5        30.09R
6HR MIN TEMP:  56; 6HR MAX TEMP:  82;

WINNEMUCCA     CLEAR     48  17  29 E3        30.05R
6HR MIN TEMP:  48; 6HR MAX TEMP:  81;

WENDOVER       CLEAR     73  28  19 NE16      30.01R
$$

NVZ035-037-310700-
CENTRAL NEVADA

CITY           SKY/WX    TMP DP  RH WIND       PRES   REMARKS
ELY            MOCLDY    63  27  25 MISG      30.12R
6HR MIN TEMP:  62; 6HR MAX TEMP:  83;

EUREKA           N/A     52  26  36 CALM      30.13R
6HR MIN TEMP:  52; 6HR MAX TEMP:  85;

$$

NVZ013-014-310700-
SOUTH CENTRAL NEVADA

CITY           SKY/WX    TMP DP  RH WIND       PRES   REMARKS
TONOPAH        CLEAR     68  15  13 NW12      30.05R
6HR MIN TEMP:  66; 6HR MAX TEMP:  86;

$$

NVZ017-020-022-310700-
SOUTHERN NEVADA

CITY           SKY/WX    TMP DP  RH WIND       PRES   REMARKS
LAS VEGAS      PTCLDY    90  40  17 SW3       29.76R
6HR MIN TEMP:  90; 6HR MAX TEMP: 100;

N. LAS VEGAS   PTCLDY    91  40  16 NW12      29.79R
6HR MIN TEMP:  90; 6HR MAX TEMP: 100;

NELLIS AFB     CLEAR     89  43  19 S8        29.76S
6HR MIN TEMP:  88; 6HR MAX TEMP: 100;

HENDERSON      CLEAR     85  43  22 S9        29.84R
MERCURY        CLEAR     79  35  20 VRB3      29.87S
6HR MIN TEMP:  79; 6HR MAX TEMP:  95;

$$



USA.gov is the U.S. government's official web portal to all federal, state and local government web resources and services.